Flag for Germany Weather past 2 weeks in Gütersloh, North Rhine-Westphalia, Germany

Now
57 °F

Clear.


Feels Like: 57 °F
Forecast: 51 / 80 °F
Wind: 3 mph from West

Location: Paderborn / Lippstadt

Current Time: Aug 2, 2015 at 1:01:59 AM

Latest Report: Aug 2, 2015 at 12:20 AM


Visibility: 10 mi

Pressure: 30.07 "Hg

Humidity: 67%

Dew point: 46 °F

Location of GüterslohLocation

Historic Weather in Gütersloh — Graph

°F

Gütersloh temperature yesterday

Maximum temperature yesterday: 73 °F (at 3:50 PM)
Minimum temperature yesterday: 46 °F (at 2:20 AM)
Average temperature yesterday: 61 °F

Past Weeks' High & Low Weather Summary

 TemperatureHumidityPressure
High77 °F (Jul 21, 4:20 PM)100% (Jul 19, 7:50 AM)30.15 "Hg (Jul 19, 7:50 AM)
Low43 °F (Jul 31, 6:20 AM)33% (Aug 1, 4:20 PM)29.53 "Hg (Jul 25, 9:50 AM)
Average61 °F71%29.89 "Hg
* Reported Jul 17 11:20 PM — Aug 1 11:20 PM, Gütersloh, Weather by CustomWeather, © 2015

Note: Actual official high and low records may vary slightly from our data, if they occured in-between our weather recording intervals... More about our weather records

Advertising

Gütersloh weather history for previous 24 hours

 ConditionsComfort  
Time TempWeatherWind HumidityBarometerVisibility
11:20 PM
Sat, Aug 1
59 °FPassing clouds.3 mph63%30.07 "HgN/A
10:50 PM63 °FClear.2 mph59%30.04 "Hg10 mi
10:20 PM63 °FPassing clouds.3 mph59%30.04 "HgN/A
9:50 PM63 °FSunny.2 mph59%30.04 "Hg10 mi
9:20 PM66 °FSunny.2 mph52%30.01 "Hg10 mi
8:50 PM68 °FSunny.3 mph49%30.01 "Hg10 mi
8:20 PM70 °FSunny.3 mph46%30.01 "Hg10 mi
7:50 PM70 °FSunny.3 mph46%29.98 "Hg10 mi
7:20 PM70 °FSunny.5 mph43%29.98 "Hg10 mi
6:50 PM72 °FPassing clouds.6 mph41%29.98 "HgN/A
6:20 PM73 °FSunny.6 mph38%29.95 "Hg10 mi
5:50 PM73 °FPassing clouds.6 mph33%29.98 "HgN/A
5:20 PM73 °FPassing clouds.6 mph36%29.98 "HgN/A
4:50 PM73 °FSunny.3 mph38%29.95 "Hg10 mi
4:20 PM73 °FSunny.2 mph33%29.95 "Hg10 mi
3:50 PM73 °FSunny.3 mph36%29.98 "Hg10 mi
3:20 PM72 °FSunny.6 mph36%29.98 "Hg10 mi
2:50 PM72 °FSunny.6 mph38%29.98 "Hg10 mi
2:20 PM72 °FPassing clouds.6 mph38%29.98 "HgN/A
1:50 PM72 °FPassing clouds.7 mph41%29.98 "HgN/A
1:20 PM70 °FPassing clouds.6 mph43%29.98 "HgN/A
12:50 PM68 °FPassing clouds.7 mph40%29.98 "HgN/A
12:20 PM68 °FPassing clouds.6 mph46%30.01 "HgN/A
11:50 AM66 °FPassing clouds.7 mph49%30.01 "HgN/A
11:20 AM64 °FPassing clouds.8 mph49%30.01 "HgN/A
10:50 AM63 °FPassing clouds.9 mph49%30.01 "HgN/A
10:20 AM63 °FSunny.12 mph49%30.01 "Hg10 mi
9:50 AM61 °FPassing clouds.9 mph52%30.01 "HgN/A
9:20 AM59 °FSunny.10 mph51%30.01 "Hg10 mi
8:50 AM57 °FSunny.8 mph59%30.01 "Hg10 mi
8:20 AM55 °FSunny.8 mph59%30.01 "Hg10 mi
7:50 AM54 °FSunny.6 mph63%30.01 "Hg10 mi
7:20 AM52 °FSunny.7 mph62%30.01 "Hg10 mi
6:50 AM52 °FPassing clouds.7 mph62%30.01 "HgN/A
6:20 AM50 °FClear.5 mph67%30.01 "Hg10 mi
5:50 AM50 °FClear.5 mph67%30.01 "Hg10 mi
5:20 AM50 °FPassing clouds.5 mph67%30.01 "HgN/A
4:50 AM52 °FClear.5 mph62%30.01 "Hg10 mi
4:20 AM50 °FClear.6 mph67%30.04 "Hg10 mi
3:50 AM48 °FClear.6 mph76%30.04 "Hg10 mi
3:20 AM50 °FClear.7 mph71%30.04 "Hg10 mi
2:50 AM48 °FClear.7 mph76%30.04 "Hg10 mi
2:20 AM46 °FClear.6 mph82%30.04 "Hg10 mi
1:50 AM48 °FClear.5 mph76%30.07 "Hg10 mi
1:20 AM48 °FClear.6 mph76%30.07 "Hg10 mi
Weather by CustomWeather, © 2015

See weather overviewHow to use our weather pages